Oxford, CT

9:44 AM EDT on August 16, 2017 (GMT -0400)
Waterbury-Oxford

Weather History for KOXC - December, 2011

Change the Weather History Date:

Wednesday, December 21, 2011

  Actual Average Record
Temperature  
Mean Temperature 45 °F -  
Max Temperature 53 °F 35 °F 57 °F (2013)
Min Temperature 37 °F 22 °F 1 °F (2004)
Degree Days  
Heating Degree Days 20    
Moisture  
Dew Point 38 °F    
Average Humidity 79    
Maximum Humidity 94    
Minimum Humidity 48    
Precipitation  
Precipitation 0.16 in - - ()
Sea Level Pressure  
Sea Level Pressure 29.97 in    
Wind  
Wind Speed 6 mph (SSW)    
Max Wind Speed 12 mph    
Max Gust Speed 24 mph    
Visibility 6 miles    
Events Fog , Rain , Thunderstorm    
Averages and records for this station are not official NWS values.
T = Trace of Precipitation, MM = Missing Value Source: NWS Daily Summary

Daily Weather History Graph

Daily Weather History Graph

Search for Another Location

Airport or City:

Trip Planner

Search our weather history database for the weather conditions in past years. The results will help you decide how hot, cold, wet, or windy it might be!

Date:

Astronomy

Dec. 21, 2011 Rise Set
Actual Time 7:15 AM EST 4:25 PM EST
Civil Twilight 6:43 AM EST 4:57 PM EST
Nautical Twilight 6:09 AM EST 5:32 PM EST
Astronomical Twilight 5:35 AM EST 6:05 PM EST
Moon 3:44 AM EST (12/21) 1:43 PM EST (12/21)
Length of Visible Light 10h 13m
Length of Day
9h 10m
Waning Crescent, 12% of the Moon is Illuminated
Dec 21
Waning Crescent
Dec 24
New
Jan 1
First Quarter
Jan 9
Full
Jan 16
Last Quarter

Hourly Weather History & Observations

Time (EST) Temp. Windchill Dew Point Humidity Pressure Visibility Wind Dir Wind Speed Gust Speed Precip Events Conditions
12:35 AM 37.4 °F 33.8 °F 19.4 °F 48% 30.18 in 10.0 mi South 4.6 mph - N/A   Overcast
12:55 AM 37.4 °F 32.8 °F 21.2 °F 52% 30.17 in 10.0 mi South 5.8 mph - N/A   Overcast
1:15 AM 37.4 °F 34.9 °F 23.0 °F 56% 30.17 in 10.0 mi South 3.5 mph - N/A   Overcast
1:35 AM 37.4 °F 33.8 °F 23.0 °F 56% 30.16 in 10.0 mi South 4.6 mph - N/A   Overcast
1:55 AM 37.4 °F 33.8 °F 23.0 °F 56% 30.16 in 10.0 mi South 4.6 mph - N/A   Overcast
2:15 AM 37.4 °F 33.8 °F 24.8 °F 60% 30.15 in 10.0 mi South 4.6 mph - N/A   Overcast
2:55 AM 37.4 °F 34.9 °F 26.6 °F 65% 30.15 in 10.0 mi South 3.5 mph - N/A   Overcast
3:15 AM 37.4 °F - 26.6 °F 65% 30.15 in 10.0 mi Calm Calm - N/A   Overcast
3:35 AM 37.4 °F 32.8 °F 26.6 °F 65% 30.14 in 10.0 mi South 5.8 mph - N/A   Overcast
3:55 AM 37.4 °F 32.8 °F 28.4 °F 70% 30.13 in 10.0 mi South 5.8 mph - N/A   Overcast
4:15 AM 39.2 °F 34.2 °F 28.4 °F 65% 30.12 in 10.0 mi South 6.9 mph - N/A   Overcast
4:35 AM 39.2 °F 34.2 °F 28.4 °F 65% 30.12 in 10.0 mi South 6.9 mph - N/A   Overcast
4:55 AM 39.2 °F 34.2 °F 30.2 °F 70% 30.11 in 10.0 mi South 6.9 mph - N/A   Overcast
5:15 AM 39.2 °F 35.0 °F 30.2 °F 70% 30.11 in 10.0 mi South 5.8 mph - N/A   Overcast
5:35 AM 39.2 °F 35.0 °F 30.2 °F 70% 30.11 in 10.0 mi SSE 5.8 mph - N/A   Overcast
5:55 AM 39.2 °F 37.0 °F 30.2 °F 70% 30.10 in 10.0 mi SSE 3.5 mph - N/A   Overcast
8:45 AM 42.8 °F 37.5 °F 39.2 °F 87% 30.05 in 8.0 mi South 9.2 mph - N/A Rain Light Rain
9:24 AM 44.6 °F 41.4 °F 41.0 °F 87% 30.05 in 2.0 mi SSE 5.8 mph - N/A Rain Light Rain
9:45 AM 44.6 °F 38.8 °F 42.8 °F 93% 30.04 in 3.0 mi South 11.5 mph 17.3 mph N/A Rain Light Rain
10:01 AM 44.6 °F 39.7 °F 42.8 °F 93% 30.03 in 3.0 mi South 9.2 mph - N/A Rain Light Rain
10:35 AM 46.4 °F 41.9 °F 42.8 °F 87% 30.01 in 1.5 mi South 9.2 mph - N/A Rain Light Rain
10:45 AM 46.4 °F 41.9 °F 44.6 °F 93% 30.00 in 1.0 mi South 9.2 mph - N/A Rain Light Rain
11:45 AM 48.2 °F - 44.6 °F 87% 29.95 in 0.2 mi SSW 5.8 mph - N/A Fog , Rain Light Rain
12:45 PM 48.2 °F - 46.4 °F 93% 29.91 in 0.5 mi SSW 8.1 mph - N/A Fog , Rain Light Rain
1:45 PM 50.0 °F - 48.2 °F 94% 29.87 in 0.2 mi SSW 6.9 mph - N/A Fog , Rain Light Rain
2:45 PM 51.8 °F - 48.2 °F 88% 29.85 in 0.8 mi North - - N/A Rain Light Rain
3:45 PM 51.8 °F - 48.2 °F 88% 29.83 in 0.8 mi WSW 5.8 mph - N/A Rain Light Rain
4:45 PM 51.8 °F - 48.2 °F 88% 29.81 in 0.8 mi SW 8.1 mph - N/A Rain Light Rain
5:45 PM 51.8 °F - 48.2 °F 88% 29.79 in 0.8 mi SW 9.2 mph - N/A Rain Light Rain
6:55 PM 51.8 °F - 50.0 °F 94% 29.77 in 0.8 mi SSW 9.2 mph - N/A Rain Light Rain
7:50 PM 51.8 °F - 50.0 °F 94% 29.75 in 0.5 mi SW 9.2 mph - N/A   Mist
9:15 PM 53.6 °F - 51.8 °F 94% 29.74 in 2.5 mi WSW 5.8 mph - N/A   Overcast
9:35 PM 53.6 °F - 51.8 °F 94% 29.72 in 2.5 mi SW 5.8 mph 16.1 mph N/A   Overcast
10:15 PM 53.6 °F - 51.8 °F 94% 29.69 in 0.8 mi SSW 9.2 mph - N/A   Overcast
10:35 PM 53.6 °F - 51.8 °F 94% 29.70 in 0.8 mi SSW 9.2 mph 16.1 mph N/A   Overcast
10:55 PM 48.2 °F - 46.4 °F 93% 29.74 in 6.0 mi West 9.2 mph 24.2 mph 0.13 in Thunderstorm Overcast
11:15 PM 48.2 °F - 46.4 °F 93% 29.73 in 10.0 mi West 6.9 mph - 0.02 in   Overcast
11:35 PM 48.2 °F - 46.4 °F 93% 29.72 in 10.0 mi West 3.5 mph - 0.02 in   Overcast
11:55 PM 50.0 °F - 46.4 °F 87% 29.73 in 10.0 mi West 8.1 mph - 0.03 in   Overcast